Chillicothe, MO

3:46 PM CST on November 20, 2019 (GMT -0600)
Chillicothe

Weather History for KCDJ - September, 2019

Change the Weather History Date:

Tuesday, September 10, 2019

  Actual Average (WUND) Record (WUND)
Temperature  
Mean Temperature 80 °F -  
Max Temperature 87 °F - - (-1)
Min Temperature 75 °F - - (-1)
Cooling Degree Days 14    
Growing Degree Days 30 (Base 50)    
Moisture  
Dew Point 72 °F    
Average Humidity 77    
Maximum Humidity 91    
Minimum Humidity 65    
Precipitation  
Precipitation 0.00 in - - ()
Sea Level Pressure  
Sea Level Pressure 30.00 in    
Wind  
Wind Speed 6 mph (South)    
Max Wind Speed 9 mph    
Max Gust Speed -    
Averages and records for this station are not official NWS values.
T = Trace of Precipitation, MM = Missing Value Source: NWS Daily Summary

Daily Weather History Graph

Daily Weather History Graph

Search for Another Location

Airport or City:

Astronomy

Sep. 10, 2019 Rise Set
Actual Time 6:50 AM CDT 7:31 PM CDT
Civil Twilight 6:23 AM CDT 7:58 PM CDT
Nautical Twilight 5:50 AM CDT 8:30 PM CDT
Astronomical Twilight 5:17 AM CDT 9:03 PM CDT
Moon 6:07 PM CDT (9/10) 3:17 AM CDT (9/10)
Length of Visible Light 13h 35m
Length of Day
12h 40m
Waxing Gibbous, 89% of the Moon is Illuminated
Sep 10
Waxing Gibbous
Sep 13
Full
Sep 21
Last Quarter
Sep 28
New
Oct 5
First Quarter

Hourly Weather History & Observations

Time (CDT) Temp. Heat Index Dew Point Humidity Pressure Visibility Wind Dir Wind Speed Gust Speed Precip Events Conditions
2:52 AM 77.0 °F - 71.1 °F 82% 29.94 in - South 4.6 mph - N/A   Unknown
3:52 AM 77.0 °F - 70.0 °F 79% 29.94 in - South 6.9 mph - N/A   Unknown
4:52 AM 77.0 °F - 70.0 °F 79% 29.94 in - South 9.2 mph - N/A   Unknown
5:52 AM 75.0 °F - 69.1 °F 82% 29.96 in - Variable 4.6 mph - N/A   Unknown
6:52 AM 75.0 °F - 69.1 °F 82% 29.99 in - South 8.1 mph - N/A   Unknown
7:52 AM 75.0 °F - 69.1 °F 82% 29.99 in - SSW 8.1 mph - N/A   Unknown
8:52 AM 77.0 °F - 69.1 °F 76% 30.00 in - SSW 6.9 mph - N/A   Unknown
9:52 AM 79.0 °F - 69.1 °F 72% 30.04 in - NNE 4.6 mph - N/A   Unknown
11:52 AM 81.0 °F 85.2 °F 72.0 °F 74% 30.05 in - SE 4.6 mph - N/A   Unknown
12:52 PM 82.9 °F 87.0 °F 70.0 °F 65% 30.03 in - South 9.2 mph - N/A   Unknown
1:52 PM 82.9 °F 87.5 °F 71.1 °F 67% 30.03 in - SSE 8.1 mph - N/A   Unknown
2:52 PM 84.0 °F 90.2 °F 73.0 °F 69% 30.01 in - Variable 5.8 mph - N/A   Unknown
3:52 PM 84.9 °F 91.4 °F 73.0 °F 67% 29.99 in - Variable 4.6 mph - N/A   Unknown
4:52 PM 84.9 °F 92.1 °F 73.9 °F 69% 29.99 in - SSE 5.8 mph - N/A   Unknown
5:52 PM 84.9 °F 92.1 °F 73.9 °F 69% 30.00 in - South 5.8 mph - N/A   Unknown
6:52 PM 82.0 °F 88.6 °F 75.0 °F 79% 29.99 in - South 3.5 mph - N/A   Unknown
7:52 PM 80.1 °F 84.5 °F 73.9 °F 81% 30.00 in - South 3.5 mph - N/A   Unknown
9:52 PM 78.1 °F - 73.0 °F 84% 30.00 in - SSE 5.8 mph - N/A   Unknown
10:52 PM 77.0 °F - 73.0 °F 88% 30.01 in - South 4.6 mph - N/A   Unknown
11:52 PM 75.9 °F - 73.0 °F 91% 30.03 in - South 3.5 mph - N/A   Unknown